Regional Weather Roundup
Issued by NWS San Angelo, TX

Home | Current Version | Previous Version | Text Only | Print | Product List | Glossary On
Versions: 1 2 3 4 5 6 7 8 9 10 11 12 13 14 15 16 17 18 19 20 21 22 23 24 25 26 27 28 29 30 31 32 33 34 35 36 37 38 39 40 41 42 43 44 45 46 47 48 49 50
000
ASUS44 KSJT 060110
RWRSJT
WEST CENTRAL TEXAS REGIONAL WEATHER ROUNDUP
NATIONAL WEATHER SERVICE SAN ANGELO TX
800 PM CDT TUE MAY 05 2015

NOTE: "FAIR" INDICATES FEW OR NO CLOUDS BELOW 12,000 FEET WITH NO
SIGNIFICANT WEATHER AND/OR OBSTRUCTIONS TO VISIBILITY.

TXZ049-054-064>066-071>073-076>078-098-099-113-114-127-128-139-140-
154-155-168>170-060200
...LOCATIONS ACROSS WEST CENTRAL TEXAS...

CITY           SKY/WX    TMP DP  RH WIND       PRES   REMARKS
SAN ANGELO     PTCLDY    73  64  73 SE18G24   29.84R
ABILENE        MOCLDY    72  62  71 S20G28    29.85S
DYESS AFB      MOCLDY    71  64  79 S20G25    29.82F
JUNCTION       CLOUDY    70  65  84 SE9       29.90R
SWEETWATER     MOCLDY    72  65  79 SE14G22   29.87F
BROWNWOOD      CLOUDY    72  63  73 S14       29.89R
COLEMAN        CLOUDY    72  64  73 S12       29.89S
SONORA         MOCLDY    72  64  78 S12G17    29.92R
OZONA          FAIR      72  63  73 S14       29.88R
BRADY          NOT AVBL
$$

TEXAS PANHANDLE/OKLAHOMA PANHANDLE

CITY           SKY/WX    TMP DP  RH WIND       PRES   REMARKS
AMARILLO       LGT RAIN  55  50  83 W9        29.83F
BORGER         CLOUDY    58  54  86 SW6       29.85R
CANADIAN       CLOUDY    64  59  85 S17G28    29.83R
DALHART        CLOUDY    59  48  67 S15       29.82F
DUMAS          LGT RAIN  54  51  90 S15       29.84S
GUYMON         NOT AVBL
HEREFORD       CLOUDY    56  54  91 MISG      29.85R
PAMPA          MOCLDY    62  57  83 S31G45    29.86R
PERRYTON       PTCLDY    64  59  82 SE18      29.81R
$$

SOUTHERN PANHANDLE/SOUTH PLAINS/ROLLING PLAINS

CITY           SKY/WX    TMP DP  RH WIND       PRES   REMARKS
LUBBOCK        MOCLDY    62  54  74 NE9       29.84R
SNYDER         PTCLDY    71  63  77 SE18      29.81S
CHILDRESS      CLOUDY    65  62  90 E3        29.84R
SEMINOLE       CLEAR     74  40  30 SW9       29.84S
$$

PERMIAN BASIN

CITY           SKY/WX    TMP DP  RH WIND       PRES   REMARKS
MIDLAND        CLEAR     80  42  25 SW7       29.81F
ODESSA         CLEAR     80  34  19 W8        29.83S
WINK           CLEAR     81  34  18 W8        29.80R
$$

FAR WEST/SOUTHWEST MOUNTAINS/TRANS PECOS

CITY           SKY/WX    TMP DP  RH WIND       PRES   REMARKS
ALPINE         CLEAR     76  32  20 W7        29.98R
DRYDEN           N/A     77  60  55 E20G28    29.82R
EL PASO        PTCLDY    78  31  17 W17G29    29.86R
FORT STOCKTON  CLEAR     76  57  51 SE15      29.84R
GUADALUPE PASS CLEAR     67  31  26 W36G43    29.92S
MARFA          CLEAR     73  30  20 SW8       29.97R
PECOS          CLEAR     83  31  14 SW12      29.79S
$$

DALLAS/FORT WORTH METROPLEX

CITY           SKY/WX    TMP DP  RH WIND       PRES   REMARKS
DFW AIRPORT    LGT RAIN  72  67  84 SE16G30   29.89R
FTW MEACHAM    CLOUDY    73  69  87 SE14G24   29.87R
DAL-EXECUTIVE  CLOUDY    74  66  76 SE20G28   29.90R
GRAND PRAIRIE  PTCLDY    73  68  83 SE10G22   29.91S
ADDISON        MOCLDY    75  64  69 SE20G30   29.90F
MESQUITE       MOCLDY    73  66  78 SE14G20   29.92S
LANCASTER      CLOUDY    73  65  77 SE12      29.92R
$$

NORTH CENTRAL TEXAS

CITY           SKY/WX    TMP DP  RH WIND       PRES   REMARKS
SHRMAN/DENISON MOCLDY    74  68  80 SE18G25   29.93R
GAINESVILLE    CLOUDY    69  66  91 SE10      29.92R
BRIDGEPORT     CLOUDY    69  68  94 SE5       29.88S
DENTON         CLOUDY    72  67  84 SE13      29.88S
WAXAHACHIE     CLOUDY    73  67  81 SE10G20   29.92R
GRANBURY         N/A     78  63  60 SE7       29.87S
$$

WESTERN NORTH TEXAS

CITY           SKY/WX    TMP DP  RH WIND       PRES   REMARKS
WICHITA FALLS  LGT RAIN  66  65  96 E8        29.83F FOG
VERNON         CLOUDY    67  62  83 SE12      29.83F
BRECKENRIDGE   CLOUDY    75  61  61 S16G23    29.86R
COMANCHE       RAIN      71  65  80 S10G16    29.90R
$$

CENTRAL AND SOUTH CENTRAL TEXAS

CITY           SKY/WX    TMP DP  RH WIND       PRES   REMARKS
AUSTIN/BERGSTM TSTM      75  68  78 SE13      29.90R
WACO           MOCLDY    77  66  68 SE17G29   29.90R
HILLSBORO      PTCLDY    72  65  80 SE16      29.90S
TEMPLE         CLOUDY    79  59  50 SE16G26   29.89R
KILLEEN-GRAY   CLOUDY    76  62  61 S20       29.89R
FORT HOOD      CLOUDY    78  61  55 SE15G23   29.89R
GEORGETOWN     CLOUDY    75  64  69 SE7       29.91R
LAGO VISTA     TSTM      69  67  93 SE7       29.92S
SAN MARCOS     CLOUDY    77  64  65 S14G22    29.89R
NEW BRAUNFELS  CLOUDY    74  69  85 S13       29.88R
RANDOLPH AFB   CLOUDY    72  70  92 S15       29.88S
SAN ANTONIO    LGT RAIN  73  69  87 SE16      29.89S
STINSON        LGT RAIN  73  69  87 SE15      29.86S FOG
PLEASANTON     NOT AVBL
LA GRANGE      MOCLDY    78  70  75 SE13G22   29.90R
GIDDINGS       CLOUDY    76  65  69 SE9G17    29.96R
$$

EAST TEXAS

CITY           SKY/WX    TMP DP  RH WIND       PRES   REMARKS
PARIS          MOCLDY    68  61  77 MISG      29.99R
CLARKSVILLE    NOT AVBL
TYLER          PTCLDY    71  67  87 SE8       29.96S
LONGVIEW       PTCLDY    76  64  66 E10       29.97S
PALESTINE      MOCLDY    73  71  93 SE5       29.97R
NACOGDOCHES    PTCLDY    75  59  57 SE8       29.98S
$$

TEXAS HILL COUNTRY AND EDWARDS PLATEAU

CITY           SKY/WX    TMP DP  RH WIND       PRES   REMARKS
LLANO          MOCLDY    70  66  88 CALM      29.94R
HORSESHOE BAY  TSTM      69  67  93 S9        29.91R
KERRVILLE      DRIZZLE   67  66  95 SE7       29.91R
FREDERICKSBRG  DRIZZLE   66  65  94 SE6       29.92R
ROCKSPRINGS    CLOUDY    66  66 100 SE9       29.92R FOG
HONDO          CLOUDY    71  70  96 SE10      29.89R
UVALDE         CLOUDY    71  69  95 E8        29.87R
DEL RIO        MOCLDY    75  68  78 E15       29.81R
$$

SOUTHEAST TEXAS

CITY           SKY/WX    TMP DP  RH WIND       PRES   REMARKS
COLLEGE STN    MOCLDY    76  67  73 SE18G26   29.93R
CALDWELL       CLOUDY    75  70  83 SE15G21   29.95R
CROCKETT       NOT AVBL
BRENHAM        CLOUDY    78  69  74 SE13G18   29.95R
HUNTSVILLE     MOCLDY    75  66  73 VRB5      29.98R
CONROE         MOCLDY    75  65  70 SE12G21   29.98R
HOUSTON BUSH   MOCLDY    76  68  76 SE18      29.97S
HOUSTON HOBBY  MOCLDY    77  68  73 SE15G25   29.97R
PERLAND        CLOUDY    78  69  73 SE17      29.99R
WHARTON        MOCLDY    75  69  80 SE13      29.95R
$$

THE UPPER TEXAS COAST

CITY           SKY/WX    TMP DP  RH WIND       PRES   REMARKS
ORANGE         CLOUDY    76  64  66 E15       30.04R
PORT ARTHUR    PTCLDY    75  68  78 SE17G25   30.01R
GALVESTON      CLEAR     76  71  85 SE16      29.99R
ANGLETON       CLOUDY    74  70  87 SE13      29.96S
BAY CITY       CLOUDY    76  73  88 SE14G20   29.95R
$$

TEXAS COASTAL BEND, RIO GRANDE PLAINS DEEP SOUTH TEXAS

CITY           SKY/WX    TMP DP  RH WIND       PRES   REMARKS
VICTORIA       CLOUDY    76  72  87 SE16G26   29.92R
BEEVILLE       CLOUDY    74  74 100 SE14G20   29.88R
ROCKPORT       CLOUDY    78  72  81 SE21G28   29.89R
PORT ARANSAS   CLOUDY    76  74  92 SE14G21   29.89R FOG
PORT LAVACA    CLOUDY    75  72  88 SE18      29.93R
CORPUS CHRISTI LGT RAIN  77  72  84 SE20G29   29.87S
KINGSVILLE NAS CLOUDY    78  75  90 SE17      29.86R
COTULLA        CLOUDY    77  69  76 SE16      29.83S
LAREDO         CLEAR     80  71  74 SE17      29.83R
BROWNSVILLE    MOCLDY    78  72  81 SE20G28   29.86S
PORT ISABEL    MOCLDY    78  72  81 SE22      29.86R
HEBBRONVILLE     N/A     77  71  81 SE12G18   29.86R
MCALLEN        CLOUDY    82  71  69 SE16      29.85R
WESLACO        CLOUDY    79  69  69 SE10G21   29.85R
FALFURRIAS     CLOUDY    79  71  78 SE9G16    29.85R
EDINBURG       MOCLDY    81  69  67 SE13G20   29.84S
$$


USA.gov is the U.S. government's official web portal to all federal, state and local government web resources and services.